ZJW243 ZULS-ZGZJ

Flight info

Callsign ZJW243
Flight time 2h 25m
Altitude 33100
Route LXA W500 DM W9 CZH B213 CTU W237 IDBOR B330 KWE W181 DUDIT DCT WUY R339 BHY
Aircraft B737/M-SDE2E3FGHIRWXY/LB1

Departure

Time 2026-05-04 10:10
Airport Lhasa Gonggar International Airport (ZULS)

Arrival

Time 2026-05-04 12:35
Airport Zhanjiang Wuchuan International Airport (ZGZJ)
Time Latitude Longitude Altitude Speed Heading
2026-05-04 09:58 29.29329 90.89107 11495 ft 0 kts 284°
2026-05-04 10:05 29.29327 90.89118 11494 ft 2 kts 284°
2026-05-04 10:06 29.29323 90.89136 11491 ft 2 kts 284°
2026-05-04 10:06 29.29309 90.89175 11493 ft 0 kts 24°
2026-05-04 10:08 29.29766 90.89286 11497 ft 39 kts 69°
2026-05-04 10:08 29.29788 90.89847 11497 ft 102 kts 89°
2026-05-04 10:08 29.29796 90.90882 11494 ft 156 kts 89°
2026-05-04 10:08 29.29788 90.91598 11523 ft 176 kts 94°
2026-05-04 10:09 29.29778 90.92073 11602 ft 183 kts 93°
2026-05-04 10:10 29.29766 90.93107 11631 ft 208 kts 93°
2026-05-04 10:10 29.29737 90.94876 11836 ft 237 kts 89°
2026-05-04 10:10 29.29803 90.97576 12141 ft 277 kts 90°
2026-05-04 10:10 29.29808 90.99099 12399 ft 288 kts 92°
2026-05-04 10:11 29.29750 91.01411 12707 ft 290 kts 92°
2026-05-04 10:11 29.29702 91.04445 13218 ft 291 kts 91°
2026-05-04 10:11 29.29686 91.06843 13627 ft 310 kts 90°
2026-05-04 10:11 29.29683 91.08513 13814 ft 318 kts 90°
2026-05-04 10:12 29.29684 91.11023 13945 ft 313 kts 91°
2026-05-04 10:12 29.29687 91.13512 14098 ft 310 kts 91°
2026-05-04 10:12 29.29689 91.15973 14264 ft 307 kts 91°
2026-05-04 10:12 29.29691 91.18411 14509 ft 305 kts 91°
2026-05-04 10:13 29.29695 91.20838 14756 ft 303 kts 91°
2026-05-04 10:13 29.29696 91.23239 15023 ft 300 kts 91°
2026-05-04 10:13 29.29697 91.25624 15396 ft 302 kts 91°
2026-05-04 10:13 29.29698 91.28072 15824 ft 314 kts 91°
2026-05-04 10:14 29.29697 91.30651 16266 ft 333 kts 91°
2026-05-04 10:14 29.29696 91.33344 16698 ft 343 kts 91°
2026-05-04 10:16 29.27634 91.52399 19523 ft 358 kts 96°
2026-05-04 10:16 29.27391 91.55263 19927 ft 366 kts 96°
2026-05-04 10:16 29.27134 91.58220 20367 ft 379 kts 96°
2026-05-04 10:16 29.26864 91.61273 20790 ft 392 kts 96°
2026-05-04 10:17 29.26584 91.64422 21216 ft 402 kts 96°
2026-05-04 10:17 29.26296 91.67646 21661 ft 412 kts 96°
2026-05-04 10:19 29.25092 91.92010 24571 ft 457 kts 91°
2026-05-04 10:19 29.25021 91.95660 24950 ft 460 kts 91°
2026-05-04 10:19 29.24935 91.99346 25345 ft 463 kts 92°
2026-05-04 10:19 29.24843 92.02998 25737 ft 466 kts 92°
2026-05-04 10:20 29.24746 92.06711 26141 ft 467 kts 92°
2026-05-04 10:20 29.24646 92.10436 26548 ft 469 kts 92°
2026-05-04 10:20 29.24547 92.14177 26972 ft 471 kts 92°
2026-05-04 10:20 29.24447 92.17930 27376 ft 471 kts 92°
2026-05-04 10:21 29.24345 92.21683 27806 ft 472 kts 92°
2026-05-04 10:21 29.24245 92.25442 28239 ft 472 kts 92°
2026-05-04 10:21 29.24146 92.29201 28688 ft 472 kts 92°
2026-05-04 10:21 29.24046 92.32958 29124 ft 472 kts 92°
2026-05-04 10:22 29.23843 92.40451 30188 ft 466 kts 92°
2026-05-04 10:22 29.23742 92.44134 30788 ft 459 kts 91°
2026-05-04 10:22 29.23642 92.47754 31359 ft 452 kts 91°
2026-05-04 10:23 29.23542 92.51342 31820 ft 451 kts 92°
2026-05-04 10:23 29.23440 92.54928 32216 ft 451 kts 91°
2026-05-04 10:25 29.32848 92.77758 33131 ft 492 kts 56°
2026-05-04 10:25 29.34562 92.81203 33119 ft 503 kts 57°
2026-05-04 10:25 29.36277 92.84675 33151 ft 512 kts 57°
2026-05-04 10:26 29.39853 92.91940 33131 ft 526 kts 57°
2026-05-04 10:26 29.43454 92.99255 33148 ft 531 kts 57°
2026-05-04 10:27 29.47085 93.06638 33179 ft 530 kts 57°
2026-05-04 10:27 29.50703 93.14012 33149 ft 530 kts 57°
2026-05-04 10:28 29.54316 93.21391 33134 ft 528 kts 57°
2026-05-04 10:28 29.57891 93.28703 33162 ft 528 kts 57°
2026-05-04 10:29 29.61483 93.36063 33156 ft 529 kts 57°
2026-05-04 10:29 29.65082 93.43453 33136 ft 530 kts 57°
2026-05-04 10:30 29.68673 93.50842 33140 ft 528 kts 57°
2026-05-04 10:30 29.72256 93.58227 33128 ft 527 kts 57°
2026-05-04 10:31 29.75826 93.65600 33158 ft 525 kts 57°
2026-05-04 10:32 29.88301 93.91465 33161 ft 527 kts 57°
2026-05-04 10:33 29.89910 93.95267 33130 ft 532 kts 68°
2026-05-04 10:33 29.90845 93.99396 33220 ft 533 kts 74°
2026-05-04 10:33 29.92348 94.07545 33221 ft 534 kts 75°
2026-05-04 10:34 29.93813 94.15467 33205 ft 535 kts 75°
2026-05-04 10:34 29.95322 94.23279 33194 ft 535 kts 74°
2026-05-04 10:35 29.96727 94.30423 33250 ft 535 kts 74°
2026-05-04 10:35 29.98277 94.38306 33234 ft 535 kts 74°
2026-05-04 10:36 29.99836 94.46278 33218 ft 536 kts 74°
2026-05-04 10:36 30.01303 94.53826 33214 ft 534 kts 74°
2026-05-04 10:37 30.02632 94.60687 33207 ft 535 kts 74°
2026-05-04 10:37 30.04153 94.68559 33198 ft 534 kts 74°
2026-05-04 10:39 30.08955 94.93588 33151 ft 534 kts 74°
2026-05-04 10:40 30.10253 95.00355 33163 ft 534 kts 74°
2026-05-04 10:40 30.11755 95.07922 33151 ft 534 kts 73°
2026-05-04 10:41 30.13426 95.16266 33158 ft 532 kts 73°
2026-05-04 10:41 30.15088 95.24625 33183 ft 536 kts 74°
2026-05-04 10:42 30.16744 95.33024 33174 ft 534 kts 74°
2026-05-04 10:42 30.18388 95.41400 33181 ft 535 kts 74°
2026-05-04 10:43 30.20017 95.49728 33208 ft 535 kts 74°
2026-05-04 10:44 30.51842 97.12503 33003 ft 535 kts 77°
2026-05-04 10:45 30.52164 97.16800 32985 ft 539 kts 91°
2026-05-04 10:45 30.51431 97.25458 33395 ft 537 kts 96°
2026-05-04 10:45 30.51017 97.29552 33686 ft 537 kts 96°
2026-05-04 10:46 30.50596 97.33849 33990 ft 535 kts 95°
2026-05-04 10:46 30.48507 97.56108 35237 ft 536 kts 95°
2026-05-04 10:46 30.47540 97.67741 36874 ft 515 kts 95°
2026-05-04 10:46 30.46776 97.76972 37693 ft 509 kts 93°
2026-05-04 10:47 30.45111 97.98636 39630 ft 489 kts 94°
2026-05-04 10:47 30.44357 98.06416 40353 ft 479 kts 94°
2026-05-04 10:47 30.43657 98.13998 41019 ft 469 kts 93°
2026-05-04 10:49 30.39745 98.63311 41009 ft 527 kts 93°
2026-05-04 10:50 30.39054 98.71836 41004 ft 535 kts 93°
2026-05-04 10:51 30.32175 99.54090 41105 ft 548 kts 94°
2026-05-04 10:52 30.31777 99.58485 41085 ft 550 kts 94°
2026-05-04 10:52 30.30520 99.72467 41113 ft 549 kts 94°
2026-05-04 10:54 30.14302 101.73272 45354 ft 516 kts 79°
2026-05-04 10:54 30.15052 101.77270 45103 ft 506 kts 60°
2026-05-04 10:56 30.36492 102.34052 44989 ft 516 kts 59°
2026-05-04 10:56 30.37905 102.37876 44983 ft 518 kts 59°
2026-05-04 10:57 30.40717 102.45593 44959 ft 519 kts 60°
2026-05-04 10:57 30.43510 102.53321 45008 ft 519 kts 60°
2026-05-04 10:58 30.50536 102.72682 45277 ft 521 kts 60°
2026-05-04 10:58 30.55533 102.86760 44981 ft 531 kts 61°
2026-05-04 10:58 30.61177 103.02568 45322 ft 529 kts 60°
2026-05-04 10:59 30.65233 103.14261 44974 ft 530 kts 62°
2026-05-04 10:59 30.67837 103.22140 44938 ft 527 kts 68°
2026-05-04 10:59 30.68468 103.26337 44965 ft 537 kts 85°
2026-05-04 11:00 30.68246 103.30737 44998 ft 540 kts 94°
2026-05-04 11:02 30.64785 103.65664 44897 ft 548 kts 94°
2026-05-04 11:05 30.43199 104.24774 44903 ft 521 kts 161°
2026-05-04 11:06 30.36630 104.28329 44867 ft 521 kts 162°
2026-05-04 11:06 30.30066 104.31913 44862 ft 522 kts 161°
2026-05-04 11:10 29.84304 104.57560 44873 ft 521 kts 161°
2026-05-04 11:12 29.58146 104.72088 44863 ft 522 kts 161°
2026-05-04 11:12 29.51603 104.75709 44859 ft 522 kts 161°
2026-05-04 11:13 29.45059 104.79326 44858 ft 522 kts 162°
2026-05-04 11:13 29.38507 104.82943 44851 ft 522 kts 162°
2026-05-04 11:14 29.37399 104.83554 44851 ft 522 kts 162°
2026-05-04 11:16 29.05398 104.99890 44835 ft 521 kts 163°
2026-05-04 11:16 28.98858 105.03193 44835 ft 522 kts 163°
2026-05-04 11:17 28.92212 105.06538 44827 ft 521 kts 163°
2026-05-04 11:19 28.65967 105.20782 44828 ft 527 kts 158°
2026-05-04 11:19 28.59536 105.24776 44828 ft 526 kts 158°
2026-05-04 11:20 28.53084 105.28701 44822 ft 525 kts 159°
2026-05-04 11:20 28.46632 105.32589 44830 ft 524 kts 159°
2026-05-04 11:22 28.20957 105.48014 44859 ft 521 kts 159°
2026-05-04 11:23 28.14595 105.51826 44867 ft 520 kts 159°
2026-05-04 11:24 27.94758 105.59060 44896 ft 493 kts 181°
2026-05-04 11:25 27.91356 105.59572 44890 ft 494 kts 180°
2026-05-04 11:25 27.84551 105.60675 44919 ft 494 kts 180°
2026-05-04 11:26 27.77805 105.62425 44903 ft 512 kts 160°
2026-05-04 11:27 27.55623 105.75406 44945 ft 513 kts 161°
2026-05-04 11:28 27.49119 105.78850 44945 ft 513 kts 161°
2026-05-04 11:28 27.42670 105.82315 44957 ft 513 kts 161°
2026-05-04 11:29 27.36235 105.85786 44958 ft 512 kts 161°
2026-05-04 11:29 27.29852 105.89224 44961 ft 511 kts 161°
2026-05-04 11:33 26.91833 106.21284 44991 ft 524 kts 130°
2026-05-04 11:33 26.87458 106.27813 44987 ft 524 kts 130°
2026-05-04 11:34 26.83058 106.34313 45000 ft 524 kts 130°
2026-05-04 11:34 26.78649 106.40815 45011 ft 524 kts 130°
2026-05-04 11:35 26.74245 106.47310 45012 ft 523 kts 130°
2026-05-04 11:35 26.69843 106.53794 45015 ft 523 kts 130°
2026-05-04 11:36 26.65440 106.60271 45027 ft 523 kts 130°
2026-05-04 11:36 26.61037 106.66739 45029 ft 523 kts 130°
2026-05-04 11:37 26.56626 106.73210 45030 ft 522 kts 130°
2026-05-04 11:37 26.52214 106.79653 45029 ft 522 kts 132°
2026-05-04 11:38 26.47264 106.85431 45035 ft 517 kts 141°
2026-05-04 11:38 26.42022 106.90921 45026 ft 517 kts 140°
2026-05-04 11:39 26.36843 106.96501 45030 ft 518 kts 139°
2026-05-04 11:41 26.18862 107.16250 45012 ft 519 kts 139°
2026-05-04 11:41 26.13725 107.21884 45016 ft 519 kts 139°
2026-05-04 11:42 26.08569 107.27532 45010 ft 519 kts 139°
2026-05-04 11:42 26.03415 107.33169 45013 ft 520 kts 139°
2026-05-04 11:43 25.98386 107.38661 44999 ft 520 kts 139°
2026-05-04 11:43 25.93246 107.44269 44995 ft 520 kts 139°
2026-05-04 11:44 25.88081 107.49898 44998 ft 519 kts 139°
2026-05-04 11:44 25.82917 107.55516 44992 ft 520 kts 139°
2026-05-04 11:45 25.77753 107.61130 44994 ft 520 kts 139°
2026-05-04 11:45 25.72582 107.66744 44984 ft 520 kts 139°
2026-05-04 11:46 25.67419 107.72369 44988 ft 520 kts 139°
2026-05-04 11:46 25.62302 107.77979 44984 ft 521 kts 139°
2026-05-04 11:47 25.57143 107.83627 44986 ft 521 kts 139°
2026-05-04 11:47 25.51984 107.89263 44973 ft 521 kts 139°
2026-05-04 11:48 25.46672 107.94649 44936 ft 512 kts 153°
2026-05-04 11:48 25.43526 107.96363 44975 ft 498 kts 168°
2026-05-04 11:48 25.40189 107.97170 44976 ft 485 kts 180°
2026-05-04 11:49 25.33527 107.97920 44969 ft 484 kts 181°
2026-05-04 11:49 25.26766 107.98649 44955 ft 485 kts 181°
2026-05-04 11:50 25.20052 107.99435 44951 ft 486 kts 180°
2026-05-04 11:50 25.13359 108.00249 44938 ft 486 kts 180°
2026-05-04 11:51 25.06621 108.01074 44944 ft 487 kts 180°
2026-05-04 11:51 24.99993 108.01883 44936 ft 486 kts 180°
2026-05-04 11:52 24.93308 108.02696 44927 ft 487 kts 180°
2026-05-04 11:52 24.86578 108.03513 44927 ft 486 kts 180°
2026-05-04 11:53 24.79854 108.04329 44920 ft 485 kts 180°
2026-05-04 11:53 24.73201 108.05134 44918 ft 484 kts 180°
2026-05-04 11:55 24.46444 108.08372 44914 ft 483 kts 179°
2026-05-04 11:56 24.39765 108.09186 44924 ft 482 kts 179°
2026-05-04 11:56 24.33082 108.09998 44914 ft 483 kts 179°
2026-05-04 11:57 24.26404 108.10808 44915 ft 483 kts 179°
2026-05-04 11:57 24.19717 108.11619 44920 ft 483 kts 179°
2026-05-04 11:58 24.13033 108.12429 44912 ft 483 kts 179°
2026-05-04 11:58 24.06353 108.13237 44918 ft 483 kts 179°
2026-05-04 11:59 23.99684 108.14043 44908 ft 483 kts 179°
2026-05-04 11:59 23.92988 108.14851 44907 ft 484 kts 179°
2026-05-04 12:00 23.86299 108.15658 44913 ft 484 kts 179°
2026-05-04 12:00 23.79604 108.16339 44904 ft 481 kts 184°
2026-05-04 12:01 23.72974 108.16301 44906 ft 478 kts 187°
2026-05-04 12:02 23.49614 108.15852 44896 ft 480 kts 186°
2026-05-04 12:03 23.42932 108.15794 44897 ft 481 kts 186°
2026-05-04 12:03 23.36326 108.15734 44906 ft 481 kts 186°
2026-05-04 12:04 23.29722 108.15672 44903 ft 482 kts 186°
2026-05-04 12:04 23.23009 108.15609 44897 ft 482 kts 186°
2026-05-04 12:05 23.16303 108.15547 44897 ft 481 kts 186°
2026-05-04 12:05 23.09654 108.15485 44894 ft 480 kts 185°
2026-05-04 12:06 23.02984 108.15422 44900 ft 479 kts 185°
2026-05-04 12:06 22.96327 108.15360 44902 ft 478 kts 185°
2026-05-04 12:07 22.89675 108.15297 44904 ft 478 kts 185°
2026-05-04 12:07 22.83025 108.15235 44914 ft 477 kts 185°
2026-05-04 12:08 22.76375 108.15173 44916 ft 477 kts 185°
2026-05-04 12:08 22.69765 108.15111 44921 ft 477 kts 185°
2026-05-04 12:09 22.63114 108.15082 44910 ft 479 kts 180°
2026-05-04 12:09 22.59837 108.15837 44919 ft 488 kts 161°
2026-05-04 12:09 22.56828 108.17596 44913 ft 495 kts 145°
2026-05-04 12:10 22.54352 108.20190 44950 ft 497 kts 131°
2026-05-04 12:10 22.52131 108.23071 44927 ft 499 kts 131°
2026-05-04 12:10 22.47738 108.28909 44924 ft 500 kts 131°
2026-05-04 12:11 22.43306 108.34717 44906 ft 501 kts 131°
2026-05-04 12:11 22.38831 108.40490 44911 ft 501 kts 131°
2026-05-04 12:12 22.34340 108.46253 44902 ft 500 kts 131°
2026-05-04 12:12 22.30623 108.51020 44915 ft 499 kts 131°
2026-05-04 12:14 22.12785 108.73862 44912 ft 496 kts 131°
2026-05-04 12:15 22.08365 108.79518 44913 ft 496 kts 131°
2026-05-04 12:15 22.03923 108.85217 44922 ft 496 kts 131°
2026-05-04 12:16 21.99483 108.90909 44919 ft 495 kts 131°
2026-05-04 12:16 21.95077 108.96550 44917 ft 495 kts 131°
2026-05-04 12:17 21.90639 109.02224 44919 ft 495 kts 131°
2026-05-04 12:17 21.86208 109.07885 44919 ft 494 kts 132°
2026-05-04 12:18 21.81779 109.13552 44921 ft 493 kts 131°
2026-05-04 12:18 21.77370 109.19214 44919 ft 493 kts 131°
2026-05-04 12:19 21.72968 109.24863 44917 ft 492 kts 131°
2026-05-04 12:19 21.70736 109.27722 43700 ft 508 kts 132°
2026-05-04 12:19 21.68489 109.30598 42546 ft 507 kts 132°
2026-05-04 12:20 21.66221 109.33502 41379 ft 506 kts 132°
2026-05-04 12:20 21.63966 109.36388 40299 ft 504 kts 133°
2026-05-04 12:20 21.61710 109.39274 39261 ft 504 kts 133°
2026-05-04 12:20 21.59414 109.42129 38168 ft 504 kts 138°
2026-05-04 12:21 21.56673 109.44425 36994 ft 499 kts 156°
2026-05-04 12:21 21.53565 109.46094 35944 ft 498 kts 160°
2026-05-04 12:21 21.50416 109.47684 34894 ft 502 kts 160°
2026-05-04 12:21 21.47255 109.49311 33867 ft 505 kts 159°
2026-05-04 12:22 21.44104 109.50986 32739 ft 505 kts 159°
2026-05-04 12:22 21.41016 109.52792 31628 ft 507 kts 150°
2026-05-04 12:22 21.38438 109.55253 30536 ft 487 kts 134°
2026-05-04 12:22 21.36599 109.58199 29440 ft 464 kts 122°
2026-05-04 12:23 21.35120 109.61174 28293 ft 441 kts 121°
2026-05-04 12:23 21.33733 109.64030 27181 ft 423 kts 121°
2026-05-04 12:23 21.32383 109.66793 26115 ft 413 kts 121°
2026-05-04 12:23 21.31027 109.69521 25102 ft 416 kts 121°
2026-05-04 12:24 21.29657 109.72244 24112 ft 415 kts 121°
2026-05-04 12:24 21.28291 109.74943 23049 ft 406 kts 121°
2026-05-04 12:24 21.26956 109.77574 21916 ft 398 kts 121°
2026-05-04 12:24 21.25641 109.80160 20834 ft 391 kts 121°
2026-05-04 12:25 21.24348 109.82699 19788 ft 385 kts 121°
2026-05-04 12:25 21.23073 109.85203 18764 ft 380 kts 121°
2026-05-04 12:25 21.21815 109.87671 17689 ft 374 kts 121°
2026-05-04 12:25 21.20577 109.90100 16571 ft 368 kts 121°
2026-05-04 12:26 21.19358 109.92492 15499 ft 363 kts 120°
2026-05-04 12:26 21.18163 109.94836 14454 ft 354 kts 120°
2026-05-04 12:26 21.16997 109.97129 13385 ft 346 kts 120°
2026-05-04 12:26 21.15865 109.99375 12267 ft 338 kts 120°
2026-05-04 12:27 21.14782 110.01531 11207 ft 329 kts 120°
2026-05-04 12:27 21.12288 110.06492 9383 ft 295 kts 120°
2026-05-04 12:27 21.11309 110.08437 9440 ft 302 kts 120°
2026-05-04 12:27 21.10293 110.10452 9315 ft 318 kts 120°
2026-05-04 12:28 21.09237 110.12546 9175 ft 318 kts 120°
2026-05-04 12:28 21.08189 110.14626 9032 ft 316 kts 120°
2026-05-04 12:28 21.07320 110.16776 8849 ft 317 kts 102°
2026-05-04 12:28 21.07405 110.19125 8561 ft 320 kts 72°
2026-05-04 12:29 21.08542 110.21132 8273 ft 316 kts 42°
2026-05-04 12:29 21.10406 110.22283 7995 ft 309 kts 16°
2026-05-04 12:29 21.12481 110.22840 7728 ft 306 kts 11°
2026-05-04 12:29 21.14549 110.23380 7445 ft 305 kts 13°
2026-05-04 12:30 21.16592 110.23995 7153 ft 304 kts 15°
2026-05-04 12:30 21.18605 110.24684 6873 ft 303 kts 17°
2026-05-04 12:30 21.20592 110.25428 6591 ft 302 kts 18°
2026-05-04 12:30 21.22558 110.26209 6306 ft 300 kts 19°
2026-05-04 12:31 21.24503 110.27011 6013 ft 299 kts 20°
2026-05-04 12:31 21.26337 110.27785 5735 ft 298 kts 20°
2026-05-04 12:31 21.28255 110.28606 5443 ft 296 kts 21°
2026-05-04 12:31 21.43746 110.35148 3199 ft 287 kts 21°
2026-05-04 12:32 21.53782 110.39699 2492 ft 274 kts 25°
2026-05-04 12:32 21.66188 110.46373 3170 ft 255 kts 64°
2026-05-04 12:32 21.66434 110.48091 3064 ft 220 kts 103°
2026-05-04 12:33 21.65695 110.49356 2996 ft 191 kts 147°
2026-05-04 12:33 21.63964 110.49851 3003 ft 167 kts 168°
2026-05-04 12:33 21.62627 110.50388 3026 ft 166 kts 144°
2026-05-04 12:33 21.59412 110.52562 3238 ft 152 kts 164°
2026-05-04 12:34 21.54270 110.55633 2473 ft 209 kts 144°
2026-05-04 12:34 21.50693 110.57903 401 ft 184 kts 149°
2026-05-04 12:34 21.49687 110.58561 181 ft 148 kts 149°
2026-05-04 12:34 21.48960 110.59012 86 ft 115 kts 150°
2026-05-04 12:35 21.48568 110.59252 84 ft 36 kts 153°
2026-05-04 12:36 21.48513 110.59252 86 ft 1 kts 224°
2026-05-04 12:36 21.48512 110.59234 84 ft 5 kts 275°
2026-05-04 12:36 21.48574 110.59097 88 ft 25 kts 303°
2026-05-04 12:36 21.48629 110.59027 85 ft 0 kts 326°